Terminal Aerodrome Forecast
Issued by NWS Honolulu, HI

Home | Current Version | Previous Version | Text Only | Print | Product List | Glossary On
Versions: 1 2 3 4 5 6 7 8 9 10 11 12 13 14 15 16 17 18 19 20 21 22 23 24 25 26 27 28 29 30 31 32 33 34 35 36 37 38 39 40 41 42 43 44
000
FTPA31 PHFO 271700
TAFHNL
TAF
PHNL 271728Z 2718/2824 33005KT P6SM FEW025 SCT045
     FM272000 34010KT P6SM FEW030
     FM280400 35006KT P6SM FEW030
     FM282000 05010KT P6SM FEW030=

USA.gov is the U.S. government's official web portal to all federal, state and local government web resources and services.